Cleveland, OH

2:55 AM EST on January 17, 2017 (GMT -0500)
Cleveland-Hopkins International

Weather History for KCLE - October, 2012

Change the Weather History Date:

Monday, October 15, 2012

  Actual Average Record
Temperature  
Mean Temperature 56 °F 54 °F  
Max Temperature 63 °F 63 °F 86 °F (1947)
Min Temperature 49 °F 46 °F 29 °F (1876)
Degree Days  
Heating Degree Days 9 11  
Month to date heating degree days 182 138  
Since 1 July heating degree days 321 241  
Cooling Degree Days 0 0  
Month to date cooling degree days 3 10  
Year to date cooling degree days 1089 814  
Growing Degree Days 2 (Base 50)    
Moisture  
Dew Point 45 °F    
Average Humidity 75    
Maximum Humidity 83    
Minimum Humidity 66    
Precipitation  
Precipitation 0.02 in 0.10 in 3.36 in (1954)
Month to date precipitation 2.51 1.56  
Year to date precipitation 32.04 30.91  
Snow  
Snow 0.00 in 0.00 in - ()
Month to date snowfall 0.0 0.0  
Since 1 July snowfall 0.0 0.0  
Since 1 September snowfall 0.0 0.0  
Snow Depth 0.00 in    
Sea Level Pressure  
Sea Level Pressure 29.79 in    
Wind  
Wind Speed 14 mph (West)    
Max Wind Speed 38 mph    
Max Gust Speed 46 mph    
Visibility 10 miles    
Events Rain    
T = Trace of Precipitation, MM = Missing Value Source: NWS Daily Summary

Daily Weather History Graph

Daily Weather History Graph

Search for Another Location

Airport or City:

Trip Planner

Search our weather history database for the weather conditions in past years. The results will help you decide how hot, cold, wet, or windy it might be!

Date:

Astronomy

Oct. 15, 2012 Rise Set
Actual Time 7:39 AM EDT 6:45 PM EDT
Civil Twilight 7:11 AM EDT 7:13 PM EDT
Nautical Twilight 6:39 AM EDT 7:45 PM EDT
Astronomical Twilight 6:07 AM EDT 8:17 PM EDT
Moon 7:49 AM EDT (10/15) 6:43 PM EDT (10/15)
Length of Visible Light 12h 01m
Length of Day
11h 05m
New Moon, 0% of the Moon is Illuminated
Oct 15
New Moon
Oct 21
First Quarter
Oct 29
Full
Nov 6
Last Quarter
Nov 13
New

Hourly Weather History & Observations

Time (EDT) Temp. Dew Point Humidity Pressure Visibility Wind Dir Wind Speed Gust Speed Precip Events Conditions
12:31 AM 64.4 °F 57.2 °F 77% 29.61 in 10.0 mi WSW 28.8 mph 38.0 mph 0.00 in Rain Light Rain
12:37 AM 62.6 °F 55.4 °F 77% 29.61 in 10.0 mi WSW 28.8 mph 46.0 mph 0.00 in Rain Light Rain
12:51 AM 63.0 °F 53.1 °F 70% 29.60 in 10.0 mi WSW 28.8 mph 50.6 mph 0.00 in   Overcast
1:40 AM 59.0 °F 50.0 °F 72% 29.65 in 10.0 mi SW 27.6 mph 36.8 mph N/A   Overcast
1:51 AM 57.9 °F 48.9 °F 72% 29.65 in 10.0 mi WSW 26.5 mph 43.7 mph N/A   Overcast
2:51 AM 55.0 °F 46.0 °F 72% 29.69 in 10.0 mi WSW 21.9 mph 36.8 mph N/A   Overcast
3:51 AM 54.0 °F 46.0 °F 75% 29.70 in 10.0 mi WSW 17.3 mph 26.5 mph N/A   Overcast
4:51 AM 54.0 °F 45.0 °F 72% 29.71 in 10.0 mi WSW 13.8 mph 28.8 mph N/A   Overcast
5:51 AM 52.0 °F 45.0 °F 77% 29.73 in 10.0 mi WSW 12.7 mph - N/A   Mostly Cloudy
6:04 AM 51.8 °F 44.6 °F 76% 29.74 in 10.0 mi WSW 12.7 mph - N/A   Mostly Cloudy
6:51 AM 52.0 °F 45.0 °F 77% 29.75 in 10.0 mi SW 12.7 mph - N/A   Overcast
7:51 AM 52.0 °F 46.0 °F 80% 29.75 in 10.0 mi WSW 13.8 mph 19.6 mph N/A   Overcast
8:44 AM 53.6 °F 46.4 °F 77% 29.77 in 10.0 mi WSW 13.8 mph 24.2 mph N/A   Overcast
8:51 AM 53.1 °F 46.0 °F 77% 29.77 in 10.0 mi WSW 15.0 mph - N/A   Overcast
9:51 AM 52.0 °F 46.0 °F 80% 29.78 in 10.0 mi WSW 13.8 mph 21.9 mph N/A   Overcast
10:51 AM 53.1 °F 46.0 °F 77% 29.79 in 10.0 mi West 13.8 mph - N/A   Overcast
11:51 AM 51.1 °F 45.0 °F 80% 29.81 in 10.0 mi West 13.8 mph 24.2 mph 0.00 in   Overcast
12:20 PM 51.8 °F 44.6 °F 76% 29.82 in 10.0 mi West 15.0 mph 21.9 mph 0.00 in Rain Light Rain
12:51 PM 53.1 °F 45.0 °F 74% 29.82 in 10.0 mi West 13.8 mph 19.6 mph 0.00 in   Overcast
1:51 PM 53.1 °F 44.1 °F 71% 29.82 in 10.0 mi West 12.7 mph 21.9 mph N/A   Overcast
2:21 PM 53.6 °F 44.6 °F 72% 29.82 in 10.0 mi WNW 16.1 mph 21.9 mph N/A   Overcast
2:51 PM 51.1 °F 45.0 °F 80% 29.83 in 7.0 mi WNW 9.2 mph - 0.01 in Rain Light Rain
3:51 PM 52.0 °F 44.1 °F 74% 29.84 in 10.0 mi WNW 13.8 mph 21.9 mph 0.01 in   Overcast
4:22 PM 51.8 °F 42.8 °F 71% 29.85 in 10.0 mi West 16.1 mph 26.5 mph N/A   Overcast
4:51 PM 51.1 °F 43.0 °F 74% 29.86 in 10.0 mi WNW 13.8 mph 21.9 mph N/A   Overcast
5:51 PM 51.1 °F 42.1 °F 71% 29.88 in 10.0 mi WNW 17.3 mph 23.0 mph 0.00 in Rain Light Rain
6:51 PM 50.0 °F 44.1 °F 80% 29.89 in 10.0 mi WNW 9.2 mph - 0.00 in   Overcast
7:51 PM 51.1 °F 42.1 °F 71% 29.91 in 10.0 mi WNW 13.8 mph - N/A   Overcast
8:51 PM 50.0 °F 42.1 °F 74% 29.92 in 10.0 mi WNW 10.4 mph - N/A   Overcast
9:51 PM 50.0 °F 39.0 °F 66% 29.94 in 10.0 mi WNW 11.5 mph 18.4 mph N/A   Overcast
10:51 PM 50.0 °F 39.0 °F 66% 29.94 in 10.0 mi West 8.1 mph - N/A   Overcast
11:51 PM 48.9 °F 39.9 °F 71% 29.94 in 10.0 mi WNW 9.2 mph - N/A   Overcast